User: anonymous   Login
Location: Unspecified
(0.0000°N, 0.0000°E)
Time: 11:53:34
(UTC+02:00)
Language:

SJ-6B - Orbit

View from above orbital plane
View from above orbital plane
View from above satellite
View from above satellite

Ground track
Ground track

The orbit data is extracted from the following two-line orbital elements,

1 28415U 04035C   15241.10681728  .00001235  00000-0  89300-4 0  9993
2 28415 097.7955 254.1303 0053833 189.9947 170.0213 15.04868784599559
Epoch (UTC): 29 August 2015 02:33:49
Eccentricity: 0.0053833
inclination: 97.7955°
perigee height: 514 km
apogee height: 589 km
right ascension of ascending node: 254.1303°
argument of perigee: 189.9947°
revolutions per day: 15.04868784
mean anomaly at epoch: 170.0213°
orbit number at epoch: 59955

The dashed part of the orbit path shows where the satellite is in the earth's shadow,  

DLR